Flag for Australia Weather past 2 weeks in Perth, Western Australia, Australia

Now
61 °F

Passing clouds.


Feels Like: 61 °F
Forecast: 54 / 64 °F
Wind: 10 mph from Southwest

Location: Belmont Perth Airport

Current Time: Jul 26, 2014 at 6:03:03 PM

Latest Report: Jul 26, 2014 at 5:00 PM


Visibility: N/A

Pressure: 30.04 "Hg

Humidity: 63%

Dew point: 48 °F

Location of PerthLocation

Historic Weather in Perth — Graph

°F

Perth temperature yesterday

Maximum temperature yesterday: 66 °F (at 12:00 PM)
Minimum temperature yesterday: 52 °F (at 2:00 AM)
Average temperature yesterday: 59 °F

Past Weeks' High & Low Weather Summary

 TemperatureHumidityPressure
High68 °F (Jul 18, 2:30 PM)100% (Jul 14, 10:30 PM)30.42 "Hg (Jul 14, 10:30 PM)
Low37 °F (Jul 17, 3:30 AM)32% (Jul 13, 1:00 PM)29.77 "Hg (Jul 14, 5:00 AM)
Average55 °F79%30.11 "Hg
* Reported Jul 11 4:00 PM — Jul 26 4:30 PM, Perth, Weather by CustomWeather, © 2014

Note: Actual official high and low records may vary slightly from our data, if they occured in-between our weather recording intervals... More about our weather records

Advertising

Perth weather history for previous 24 hours

 ConditionsComfort  
Time TempWeatherWind HumidityBarometerVisibility
4:30 PM
Jul 26
61 °FScattered clouds.15 mph63%30.04 "HgN/A
4:00 PM61 °FSprinkles. Scattered clouds.15 mph68%30.04 "HgN/A
3:30 PM63 °FBroken clouds.14 mph68%30.01 "HgN/A
3:00 PM61 °FScattered showers. Partly sunny.12 mph83%30.01 "HgN/A
2:30 PM59 °FSprinkles. Broken clouds.6 mph94%30.01 "HgN/A
2:01 PM59 °FLight rain. More clouds than sun.10 mph94%30.01 "Hg4 mi
1:50 PM59 °FSprinkles. More clouds than sun.15 mph94%30.01 "Hg4 mi
1:30 PM59 °FSprinkles. Partly sunny.15 mph94%29.98 "Hg4 mi
1:00 PM61 °FSprinkles. More clouds than sun.14 mph94%29.98 "Hg4 mi
12:30 PM61 °FSprinkles. Broken clouds.10 mph94%29.98 "Hg4 mi
12:00 PM61 °FRain showers. Mostly cloudy.20 mph88%29.98 "Hg2 mi
11:30 AM63 °FSprinkles. Broken clouds.21 mph94%29.98 "Hg4 mi
11:00 AM63 °FSprinkles. Broken clouds.16 mph88%29.98 "Hg4 mi
10:00 AM63 °FSprinkles. Broken clouds.20 mph88%29.98 "HgN/A
9:30 AM63 °FScattered showers. Broken clouds.14 mph83%29.98 "HgN/A
9:00 AM59 °FScattered clouds.14 mph94%29.98 "HgN/A
8:30 AM57 °FScattered showers. Scattered clouds.14 mph94%29.98 "HgN/A
8:00 AM55 °FScattered clouds.12 mph100%29.98 "HgN/A
7:30 AM55 °FPassing clouds.10 mph94%29.98 "HgN/A
7:00 AM55 °FScattered showers. Broken clouds.10 mph94%29.95 "HgN/A
6:30 AM55 °FSprinkles. Broken clouds.10 mph94%29.98 "HgN/A
6:00 AM57 °FSprinkles. Partly cloudy.13 mph88%29.98 "Hg4 mi
5:30 AM57 °FScattered showers. Partly cloudy.12 mph82%29.95 "HgN/A
5:00 AM57 °FPartly cloudy.13 mph82%29.95 "HgN/A
4:30 AM57 °FPassing clouds.10 mph82%29.95 "HgN/A
4:00 AM55 °FPassing clouds.10 mph88%29.95 "HgN/A
3:30 AM55 °FPassing clouds.9 mph88%29.98 "HgN/A
3:00 AM55 °FPartly cloudy.13 mph94%29.98 "HgN/A
2:30 AM57 °FSprinkles. Partly cloudy.15 mph82%29.98 "HgN/A
2:00 AM57 °FPassing clouds.10 mph82%29.98 "HgN/A
1:30 AM55 °FPassing clouds.10 mph88%30.01 "HgN/A
1:00 AM55 °FScattered showers. Passing clouds.10 mph82%30.01 "HgN/A
12:30 AM55 °FPartly cloudy.8 mph88%30.01 "HgN/A
12:00 AM55 °FPassing clouds.9 mph88%30.01 "HgN/A
11:30 PM
Jul 25
55 °FPassing clouds.9 mph88%30.04 "HgN/A
10:30 PM57 °FSprinkles. Partly cloudy.8 mph82%30.04 "Hg5 mi
10:00 PM59 °FScattered showers. Passing clouds.12 mph77%30.04 "HgN/A
9:30 PM57 °FScattered showers. Partly cloudy.14 mph82%30.07 "HgN/A
9:00 PM61 °FSprinkles. Partly cloudy.8 mph72%30.07 "HgN/A
8:30 PM61 °FSprinkles. Partly cloudy.8 mph68%30.07 "HgN/A
8:00 PM63 °FScattered showers. Passing clouds.10 mph68%30.04 "HgN/A
7:30 PM63 °FSprinkles. Passing clouds.16 mph59%30.07 "HgN/A
7:00 PM63 °FScattered showers. Passing clouds.13 mph68%30.04 "HgN/A
6:30 PM63 °FScattered showers. Passing clouds.12 mph73%30.04 "HgN/A
6:00 PM63 °FPassing clouds.14 mph73%30.04 "HgN/A
Weather by CustomWeather, © 2014

See weather overviewHow to use our weather pages